CST,Max TemperatureF,Mean TemperatureF,Min TemperatureF,Max Dew PointF,MeanDew PointF,Min DewpointF,Max Humidity, Mean Humidity, Min Humidity, Max Sea Level PressureIn, Mean Sea Level PressureIn, Min Sea Level PressureIn, Max VisibilityMiles, Mean VisibilityMiles, Min VisibilityMiles, Max Wind SpeedMPH, Mean Wind SpeedMPH, Max Gust SpeedMPH,PrecipitationIn, CloudCover, Events, WindDirDegrees
2013-1-1,47,42,37,47,39,30,100,87,73,30.26,30.16,30.04,10,9,5,15,9,21,0.05,7,Rain,353
2013-1-2,39,36,33,32,29,28,82,73,64,30.35,30.29,30.26,10,10,10,14,6,16,0.00,5,,334
2013-1-3,52,40,27,30,28,24,85,62,39,30.46,30.41,30.35,10,10,6,14,5,17,0.00,2,,353
2013-1-4,51,46,40,37,32,27,65,52,39,30.53,30.45,30.39,10,10,10,10,2,12,0.01,7,Rain,70
2013-1-5,53,45,36,39,37,35,92,71,50,30.39,30.33,30.25,10,10,7,10,4,13,0.01,4,Rain,191
2013-1-6,60,45,30,39,30,24,100,63,26,30.39,30.33,30.30,10,4,0,15,4,20,0.00,2,Fog,352
2013-1-7,55,42,29,36,30,24,82,60,38,30.37,30.27,30.13,10,10,10,15,5,17,0.00,1,,102
2013-1-8,57,51,44,55,46,35,100,81,61,30.13,30.06,29.97,10,6,1,18,6,23,0.76,8,Rain-Thunderstorm,79
2013-1-9,58,56,54,58,55,53,100,97,93,30.13,30.06,30.00,10,6,1,20,11,25,1.56,8,Rain-Thunderstorm,61
2013-1-10,66,56,46,61,53,43,100,76,52,30.03,29.98,29.92,10,9,2,24,11,30,0.08,4,Rain,192
2013-1-11,74,60,46,60,49,43,86,61,35,30.01,29.92,29.84,10,10,10,24,11,31,0.00,2,,180
2013-1-12,72,56,39,67,58,36,100,92,84,29.88,29.80,29.69,10,8,2,23,12,32,0.50,8,Rain-Thunderstorm,195
2013-1-13,46,39,32,36,30,22,92,73,53,30.26,30.08,29.87,10,10,8,21,12,29,0.10,5,Rain-Thunderstorm,339
2013-1-14,45,38,30,25,23,20,78,60,41,30.34,30.26,30.21,10,10,9,16,10,24,0.02,4,Rain,28
2013-1-15,35,33,30,32,27,19,96,76,56,30.22,30.18,30.12,10,8,3,20,9,23,0.06,8,Rain,14
2013-1-16,48,38,28,30,23,16,89,60,31,30.29,30.23,30.17,10,10,10,14,6,20,0.00,1,,306
2013-1-17,61,44,26,32,29,23,85,59,32,30.51,30.39,30.27,10,10,10,16,5,22,0.00,0,,331
2013-1-18,61,47,32,34,31,28,82,59,35,30.55,30.45,30.33,10,10,10,15,5,17,0.00,0,,131
2013-1-19,62,48,34,42,37,32,83,65,46,30.34,30.27,30.20,10,10,10,14,8,17,0.00,0,,182
2013-1-20,68,54,39,49,43,37,100,73,45,30.27,30.21,30.12,10,6,0,13,6,16,0.00,1,Fog,177
2013-1-21,65,54,43,46,42,36,93,72,51,30.26,30.21,30.14,10,10,5,12,5,15,0.00,1,,88
2013-1-22,62,50,38,45,38,29,86,69,51,30.35,30.27,30.23,10,10,10,12,5,14,0.00,2,,122
2013-1-23,73,60,46,53,49,45,93,69,44,30.32,30.25,30.19,10,10,8,17,10,21,0.00,0,,190
2013-1-24,71,62,53,59,57,52,100,83,66,30.24,30.15,30.07,10,9,4,16,10,20,0.00,4,,182
2013-1-25,67,59,51,60,52,46,90,83,75,30.18,30.13,30.06,10,9,6,20,9,24,0.00,7,,38
2013-1-26,51,50,49,49,48,46,100,92,83,30.23,30.18,30.14,9,2,0,12,6,14,0.03,8,Fog-Rain,65
2013-1-27,76,63,50,63,57,50,100,77,54,30.15,30.08,29.99,10,7,0,22,13,30,0.00,6,Fog,162
2013-1-28,79,73,67,63,61,57,87,68,48,30.09,30.00,29.91,10,10,10,25,16,31,T,8,,177
2013-1-29,77,67,56,65,60,52,87,74,60,29.91,29.71,29.50,10,9,2,35,16,47,0.55,7,Rain-Thunderstorm,201
2013-1-30,56,45,33,48,31,21,77,55,32,30.17,29.96,29.71,10,10,4,30,12,40,0.01,3,Rain,280
2013-1-31,65,48,30,30,26,21,85,52,19,30.30,30.21,30.15,10,10,10,20,8,25,0.00,0,,202